Minot, ND

8:38 AM CDT on May 23, 2017 (GMT -0500)
Minot International

Weather History for KMOT - July, 2012

Change the Weather History Date:

Friday, July 13, 2012

  Actual Average Record
Temperature  
Mean Temperature 77 °F 70 °F  
Max Temperature 91 °F 81 °F 99 °F (1936)
Min Temperature 63 °F 58 °F 41 °F (1967)
Cooling Degree Days 12 5  
Month to date cooling degree days 122 62  
Year to date cooling degree days 202 151  
Since 1 June cooling degree days 197 135  
Growing Degree Days 27 (Base 50)    
Moisture  
Dew Point 63 °F    
Average Humidity 63    
Maximum Humidity 87    
Minimum Humidity 38    
Precipitation  
Precipitation 0.00 in 0.08 in 1.76 in (1999)
Month to date precipitation 0.39 1.19  
Year to date precipitation 9.41 10.16  
Sea Level Pressure  
Sea Level Pressure 29.98 in    
Wind  
Wind Speed 5 mph (NW)    
Max Wind Speed 12 mph    
Max Gust Speed 14 mph    
Visibility 9 miles    
Events      
T = Trace of Precipitation, MM = Missing Value Source: NWS Daily Summary

Daily Weather History Graph

Daily Weather History Graph

Search for Another Location

Airport or City:

Trip Planner

Search our weather history database for the weather conditions in past years. The results will help you decide how hot, cold, wet, or windy it might be!

Date:

Astronomy

Jul. 13, 2012 Rise Set
Actual Time 5:58 AM CDT 9:42 PM CDT
Civil Twilight 5:18 AM CDT 10:22 PM CDT
Nautical Twilight 4:24 AM CDT 11:16 PM CDT
Astronomical Twilight 3:06 AM CDT 12:33 AM CDT
Moon 1:43 AM CDT (7/13) 5:10 PM CDT (7/13)
Length of Visible Light 17h 03m
Length of Day
15h 43m
Waning Crescent, 26% of the Moon is Illuminated
Jul 13
Waning Crescent
Jul 18
New
Jul 26
First Quarter
Aug 1
Full
Aug 9
Last Quarter

Hourly Weather History & Observations

Time (CDT) Temp. Heat Index Dew Point Humidity Pressure Visibility Wind Dir Wind Speed Gust Speed Precip Events Conditions
12:54 AM 69.1 °F - 61.0 °F 75% 29.93 in 10.0 mi WSW 5.8 mph - N/A   Clear
1:54 AM 66.9 °F - 61.0 °F 81% 29.93 in 10.0 mi West 3.5 mph - N/A   Clear
2:54 AM 66.0 °F - 61.0 °F 84% 29.93 in 10.0 mi WSW 6.9 mph - N/A   Clear
3:54 AM 64.9 °F - 60.1 °F 84% 29.94 in 10.0 mi SW 6.9 mph - N/A   Clear
4:54 AM 64.9 °F - 61.0 °F 87% 29.95 in 10.0 mi NNW 5.8 mph - N/A   Clear
5:54 AM 64.0 °F - 61.0 °F 90% 29.95 in 10.0 mi Calm Calm - N/A   Clear
6:54 AM 64.0 °F - 61.0 °F 90% 29.97 in 7.0 mi WSW 4.6 mph - N/A   Clear
7:54 AM 71.1 °F - 63.0 °F 75% 29.98 in 8.0 mi West 6.9 mph - N/A   Clear
8:54 AM 73.9 °F - 64.0 °F 71% 29.98 in 9.0 mi WNW 8.1 mph - N/A   Clear
9:54 AM 78.1 °F - 66.0 °F 66% 29.99 in 10.0 mi NW 8.1 mph - N/A   Clear
10:54 AM 82.0 °F 84.5 °F 66.9 °F 60% 30.01 in 10.0 mi NNW 9.2 mph - N/A   Clear
11:54 AM 84.0 °F 86.3 °F 66.0 °F 55% 30.01 in 10.0 mi North 5.8 mph - N/A   Clear
12:54 PM 84.9 °F 86.1 °F 64.0 °F 49% 30.01 in 10.0 mi Calm Calm - N/A   Partly Cloudy
1:54 PM 88.0 °F 89.3 °F 64.0 °F 45% 30.00 in 10.0 mi North 8.1 mph - N/A   Partly Cloudy
2:27 PM 87.8 °F 88.5 °F 62.6 °F 43% 30.02 in 10.0 mi NNE 6.9 mph - N/A   Partly Cloudy
2:54 PM 88.0 °F 88.4 °F 62.1 °F 42% 29.99 in 10.0 mi SE 4.6 mph - N/A   Clear
3:54 PM 90.0 °F 89.7 °F 60.1 °F 37% 29.99 in 10.0 mi NW 3.5 mph - N/A   Clear
4:54 PM 90.0 °F 89.7 °F 60.1 °F 37% 29.97 in 10.0 mi WNW 4.6 mph - N/A   Clear
5:54 PM 90.0 °F 89.7 °F 60.1 °F 37% 29.97 in 10.0 mi NW 6.9 mph - N/A   Clear
6:54 PM 89.1 °F 89.3 °F 62.1 °F 40% 29.96 in 10.0 mi NW 6.9 mph - N/A   Clear
7:54 PM 84.9 °F 86.6 °F 64.9 °F 51% 29.97 in 10.0 mi NNW 6.9 mph - N/A   Clear
8:54 PM 82.0 °F 84.5 °F 66.9 °F 60% 29.98 in 9.0 mi North 4.6 mph - N/A   Clear
9:54 PM 75.9 °F - 66.0 °F 71% 29.99 in 7.0 mi North 4.6 mph - N/A   Clear
10:54 PM 72.0 °F - 64.9 °F 78% 30.01 in 8.0 mi North 4.6 mph - N/A   Clear
11:54 PM 72.0 °F - 64.9 °F 78% 30.01 in 8.0 mi North 3.5 mph - N/A   Clear